Hourly Data Report for June 05, 2021

TOBERMORY RCS
ONTARIO
Current Station Operator: ECCC - MSC

45°14'00.000" N
81°38'00.000" W
213.50 m
6128330
71767
TTR

Download Data

Hourly Data (June 2021)
Hourly Data Report for June 5, 2021
TIME
LST
Temp Definition
°C
Dew Point Definition
°C
Rel Hum Definition
%
Precip. Amount Definition
mm

Wind Dir Definition
10's deg

Wind Spd Definition
km/h
Visibility Definition
km
Stn Press Definition
kPa
Hmdx Definition


Wind Chill Definition


Weather Definition


00:00 16.9 11.8 72 0.0 22 14   98.11     LegendNANA
01:00 16.3 10.6 69 0.0 22 15   98.09     LegendNANA
02:00 16.3 10.7 69 0.0 22 15   98.09     LegendNANA
03:00 17.0 9.6 61 0.0 24 20   98.09     LegendNANA
04:00 16.6 8.8 60 0.0 25 21   98.14     LegendNANA
05:00 14.7 9.0 69 0.0 26 14   98.25     LegendNANA
06:00 14.2 9.6 74 0.0 23 9   98.32     LegendNANA
07:00 15.7 11.1 74 0.0 21 7   98.36     LegendNANA
08:00 16.1 11.4 74 0.0 22 9   98.40     LegendNANA
09:00 18.6 11.1 62 0.0 22 13   98.36     LegendNANA
10:00 19.0 11.1 60 0.0 21 15   98.35     LegendNANA
11:00 18.6 11.5 63 0.0 22 13   98.41     LegendNANA
12:00 19.3 11.3 60 0.0 21 13   98.39     LegendNANA
13:00 19.9 12.1 61 0.0 21 16   98.41     LegendNANA
14:00 18.4 11.6 65 0.0 21 12   98.43     LegendNANA
15:00 18.5 11.7 64 0.0 23 10   98.45     LegendNANA
16:00 19.6 12.9 65 0.0 16 7   98.42     LegendNANA
17:00 17.2 11.7 70 0.0 17 12   98.33     LegendNANA
18:00 18.8 11.6 63 0.0 17 14   98.33     LegendNANA
19:00 17.6 11.2 66 0.0 18 12   98.37     LegendNANA
20:00 15.7 11.0 74 0.0 17 9   98.42     LegendNANA
21:00 15.0 10.9 77 0.0 17 7   98.47     LegendNANA
22:00 14.8 10.9 77 0.0 18 7   98.51     LegendNANA
23:00 14.2 10.7 80 0.0 16 9   98.53     LegendNANA

Notes on Data Quality.

Legend

  • E = Estimated
  • M = Missing
  • NA = Not Available*
  • [empty] = Indicates an unobserved value
Date modified: